Monticello, NY

2:05 AM EDT on April 24, 2017 (GMT -0400)
Sullivan County International

Weather History for KMSV - March, 2013

Change the Weather History Date:

Sunday, March 3, 2013

  Actual Average Record
Temperature  
Mean Temperature 24 °F -  
Max Temperature 28 °F 36 °F 57 °F (2002)
Min Temperature 19 °F 20 °F 0 °F (2003)
Degree Days  
Heating Degree Days 42    
Moisture  
Dew Point 13 °F    
Average Humidity 64    
Maximum Humidity 74    
Minimum Humidity 55    
Precipitation  
Precipitation 0.00 in - - ()
Sea Level Pressure  
Sea Level Pressure 29.70 in    
Wind  
Wind Speed 13 mph (NW)    
Max Wind Speed 21 mph    
Max Gust Speed 29 mph    
Visibility 10 miles    
Events      
Averages and records for this station are not official NWS values.
T = Trace of Precipitation, MM = Missing Value Source: NWS Daily Summary

Daily Weather History Graph

Daily Weather History Graph

Search for Another Location

Airport or City:

Trip Planner

Search our weather history database for the weather conditions in past years. The results will help you decide how hot, cold, wet, or windy it might be!

Date:

Astronomy

Mar. 03, 2013 Rise Set
Actual Time 6:30 AM EST 5:52 PM EST
Civil Twilight 6:02 AM EST 6:20 PM EST
Nautical Twilight 5:30 AM EST 6:52 PM EST
Astronomical Twilight 4:58 AM EST 7:24 PM EST
Moon No Moon Rise 9:38 AM EST (3/3)
Length of Visible Light 12h 17m
Length of Day
11h 21m
Waning Gibbous, 64% of the Moon is Illuminated
Mar 3
Waning Gibbous
Mar 4
Last Quarter
Mar 11
New
Mar 19
First Quarter
Mar 27
Full

Hourly Weather History & Observations

Time (EST) Temp. Windchill Dew Point Humidity Pressure Visibility Wind Dir Wind Speed Gust Speed Precip Events Conditions
12:15 AM 21.2 °F 10.9 °F 12.2 °F 68% 29.71 in 10.0 mi WNW 9.2 mph - N/A   Overcast
12:35 AM 21.2 °F 10.1 °F 14.0 °F 74% 29.71 in 10.0 mi NW 10.4 mph 18.4 mph N/A   Overcast
12:55 AM 21.2 °F 11.7 °F 12.2 °F 68% 29.71 in 10.0 mi NW 8.1 mph 16.1 mph N/A   Overcast
1:15 AM 21.2 °F 10.9 °F 14.0 °F 74% 29.71 in 10.0 mi NW 9.2 mph 18.4 mph N/A   Overcast
1:35 AM 21.2 °F 9.5 °F 12.2 °F 68% 29.71 in 10.0 mi NW 11.5 mph 16.1 mph N/A   Overcast
1:55 AM 21.2 °F 10.9 °F 12.2 °F 68% 29.71 in 10.0 mi NW 9.2 mph 16.1 mph N/A   Overcast
2:15 AM 21.2 °F 8.9 °F 12.2 °F 68% 29.70 in 10.0 mi NW 12.7 mph 23.0 mph N/A   Overcast
2:35 AM 21.2 °F 8.9 °F 12.2 °F 68% 29.70 in 10.0 mi NW 12.7 mph - N/A   Overcast
2:55 AM 21.2 °F 8.3 °F 12.2 °F 68% 29.69 in 10.0 mi NW 13.8 mph - N/A   Overcast
3:15 AM 21.2 °F 7.8 °F 12.2 °F 68% 29.69 in 10.0 mi NW 15.0 mph 20.7 mph N/A   Overcast
3:35 AM 21.2 °F 8.3 °F 12.2 °F 68% 29.69 in 10.0 mi NW 13.8 mph 20.7 mph N/A   Overcast
3:55 AM 21.2 °F 8.3 °F 12.2 °F 68% 29.69 in 10.0 mi NW 13.8 mph 19.6 mph N/A   Overcast
4:15 AM 21.2 °F 8.9 °F 12.2 °F 68% 29.69 in 10.0 mi NW 12.7 mph 19.6 mph N/A   Overcast
4:35 AM 21.2 °F 8.9 °F 12.2 °F 68% 29.69 in 10.0 mi NW 12.7 mph 18.4 mph N/A   Overcast
4:55 AM 21.2 °F 8.9 °F 12.2 °F 68% 29.69 in 10.0 mi NW 12.7 mph 21.9 mph N/A   Overcast
5:15 AM 21.2 °F 8.9 °F 12.2 °F 68% 29.69 in 10.0 mi NNW 12.7 mph - N/A   Overcast
5:35 AM 19.4 °F 8.6 °F 12.2 °F 74% 29.70 in 10.0 mi NW 9.2 mph - N/A   Overcast
5:55 AM 19.4 °F 7.2 °F 12.2 °F 74% 29.70 in 10.0 mi NW 11.5 mph 19.6 mph N/A   Overcast
6:15 AM 19.4 °F 6.6 °F 12.2 °F 74% 29.70 in 10.0 mi NW 12.7 mph 16.1 mph N/A   Overcast
6:35 AM 19.4 °F 7.9 °F 12.2 °F 74% 29.70 in 10.0 mi NW 10.4 mph - N/A   Overcast
7:15 AM 19.4 °F 7.9 °F 12.2 °F 74% 29.71 in 10.0 mi NW 10.4 mph 17.3 mph N/A   Overcast
7:35 AM 19.4 °F 8.6 °F 12.2 °F 74% 29.72 in 10.0 mi NW 9.2 mph 16.1 mph N/A   Overcast
7:55 AM 19.4 °F 5.5 °F 10.4 °F 68% 29.72 in 10.0 mi NW 15.0 mph 20.7 mph N/A   Overcast
8:15 AM 19.4 °F 6.0 °F 10.4 °F 68% 29.72 in 10.0 mi NW 13.8 mph - N/A   Overcast
8:35 AM 21.2 °F 7.8 °F 12.2 °F 68% 29.71 in 10.0 mi NNW 15.0 mph 19.6 mph N/A   Overcast
8:55 AM 21.2 °F 7.8 °F 10.4 °F 63% 29.71 in 10.0 mi NW 15.0 mph - N/A   Mostly Cloudy
9:15 AM 23.0 °F 9.6 °F 10.4 °F 59% 29.70 in 10.0 mi NNW 16.1 mph 23.0 mph N/A   Overcast
9:35 AM 24.8 °F 10.3 °F 12.2 °F 59% 29.70 in 10.0 mi NNW 20.7 mph 25.3 mph N/A   Mostly Cloudy
9:55 AM 24.8 °F 10.7 °F 12.2 °F 59% 29.69 in 10.0 mi North 19.6 mph 25.3 mph N/A   Scattered Clouds
10:15 AM 24.8 °F 12.4 °F 12.2 °F 59% 29.70 in 10.0 mi NW 15.0 mph 26.5 mph N/A   Mostly Cloudy
10:35 AM 24.8 °F 12.4 °F 12.2 °F 59% 29.69 in 10.0 mi NW 15.0 mph 24.2 mph N/A   Mostly Cloudy
10:55 AM 26.6 °F 14.3 °F 12.2 °F 55% 29.69 in 10.0 mi NNW 16.1 mph 20.7 mph N/A   Mostly Cloudy
11:15 AM 28.4 °F 17.5 °F 14.0 °F 55% 29.68 in 10.0 mi NW 13.8 mph 21.9 mph N/A   Mostly Cloudy
11:35 AM 26.6 °F 14.3 °F 12.2 °F 55% 29.69 in 10.0 mi NW 16.1 mph 21.9 mph N/A   Mostly Cloudy
11:55 AM 26.6 °F 16.8 °F 12.2 °F 55% 29.69 in 10.0 mi NW 10.4 mph 21.9 mph N/A   Overcast
12:15 PM 26.6 °F 14.3 °F 12.2 °F 55% 29.68 in 10.0 mi NW 16.1 mph 21.9 mph N/A   Overcast
12:35 PM 26.6 °F 14.3 °F 14.0 °F 59% 29.68 in 10.0 mi WNW 16.1 mph 23.0 mph N/A   Overcast
12:55 PM 26.6 °F 14.7 °F 12.2 °F 55% 29.67 in 10.0 mi NW 15.0 mph 20.7 mph N/A   Overcast
1:15 PM 28.4 °F 16.6 °F 15.8 °F 59% 29.66 in 10.0 mi WNW 16.1 mph 20.7 mph N/A   Mostly Cloudy
1:35 PM 28.4 °F 19.7 °F 14.0 °F 55% 29.66 in 10.0 mi NW 9.2 mph - N/A   Mostly Cloudy
1:55 PM 28.4 °F 17.0 °F 14.0 °F 55% 29.66 in 10.0 mi WNW 15.0 mph 20.7 mph N/A   Mostly Cloudy
2:15 PM 28.4 °F 15.4 °F 15.8 °F 59% 29.66 in 4.0 mi NW 19.6 mph - N/A   Overcast
2:35 PM 28.4 °F 18.5 °F 15.8 °F 59% 29.67 in 10.0 mi NW 11.5 mph 21.9 mph N/A   Overcast
2:55 PM 28.4 °F 18.0 °F 17.6 °F 64% 29.67 in 10.0 mi WNW 12.7 mph 18.4 mph N/A   Overcast
3:15 PM 28.4 °F 16.6 °F 15.8 °F 59% 29.67 in 10.0 mi NNW 16.1 mph 21.9 mph N/A   Overcast
3:35 PM 28.4 °F 17.0 °F 15.8 °F 59% 29.66 in 10.0 mi NW 15.0 mph 18.4 mph N/A   Overcast
3:55 PM 26.6 °F 14.7 °F 15.8 °F 64% 29.66 in 9.0 mi NW 15.0 mph 23.0 mph N/A   Overcast
4:15 PM 26.6 °F 14.7 °F 14.0 °F 59% 29.67 in 10.0 mi WNW 15.0 mph 25.3 mph N/A   Overcast
4:35 PM 26.6 °F 14.7 °F 15.8 °F 64% 29.67 in 10.0 mi NW 15.0 mph 21.9 mph N/A   Overcast
4:55 PM 26.6 °F 14.7 °F 14.0 °F 59% 29.68 in 10.0 mi WNW 15.0 mph 23.0 mph N/A   Overcast
5:15 PM 26.6 °F 14.7 °F 14.0 °F 59% 29.68 in 10.0 mi WNW 15.0 mph 19.6 mph N/A   Overcast
5:35 PM 24.8 °F 12.9 °F 12.2 °F 59% 29.68 in 10.0 mi WNW 13.8 mph 24.2 mph N/A   Overcast
5:55 PM 24.8 °F 13.4 °F 12.2 °F 59% 29.69 in 10.0 mi WNW 12.7 mph 20.7 mph N/A   Overcast
6:15 PM 24.8 °F 11.1 °F 12.2 °F 59% 29.70 in 10.0 mi WNW 18.4 mph 25.3 mph N/A   Overcast
6:35 PM 24.8 °F 12.9 °F 12.2 °F 59% 29.70 in 10.0 mi NW 13.8 mph 19.6 mph N/A   Overcast
6:55 PM 24.8 °F 16.1 °F 12.2 °F 59% 29.71 in 10.0 mi NW 8.1 mph - N/A   Overcast
7:35 PM 23.0 °F 8.7 °F 12.2 °F 63% 29.71 in 10.0 mi WNW 18.4 mph 27.6 mph N/A   Overcast
7:55 PM 23.0 °F 10.1 °F 12.2 °F 63% 29.72 in 10.0 mi NW 15.0 mph 24.2 mph N/A   Overcast
8:15 PM 23.0 °F 10.6 °F 10.4 °F 59% 29.73 in 10.0 mi NW 13.8 mph 23.0 mph N/A   Overcast
8:35 PM 23.0 °F 8.7 °F 12.2 °F 63% 29.73 in 10.0 mi WNW 18.4 mph 28.8 mph N/A   Overcast
8:55 PM 21.2 °F 7.3 °F 12.2 °F 68% 29.73 in 10.0 mi WNW 16.1 mph 26.5 mph N/A   Overcast
9:15 PM 21.2 °F 10.1 °F 12.2 °F 68% 29.74 in 10.0 mi WNW 10.4 mph - N/A   Overcast
9:35 PM 21.2 °F 9.5 °F 10.4 °F 63% 29.74 in 10.0 mi NW 11.5 mph 23.0 mph N/A   Overcast
9:55 PM 21.2 °F 8.3 °F 10.4 °F 63% 29.74 in 10.0 mi WNW 13.8 mph - N/A   Overcast
10:15 PM 21.2 °F 8.3 °F 10.4 °F 63% 29.74 in 10.0 mi WNW 13.8 mph 18.4 mph N/A   Overcast
10:35 PM 21.2 °F 9.5 °F 10.4 °F 63% 29.73 in 10.0 mi WNW 11.5 mph 18.4 mph N/A   Overcast
10:55 PM 21.2 °F 7.3 °F 10.4 °F 63% 29.73 in 10.0 mi NW 16.1 mph 21.9 mph N/A   Overcast
11:15 PM 21.2 °F 8.9 °F 12.2 °F 68% 29.74 in 10.0 mi WNW 12.7 mph 20.7 mph N/A   Overcast
11:35 PM 21.2 °F 9.5 °F 10.4 °F 63% 29.73 in 10.0 mi WNW 11.5 mph 18.4 mph N/A   Overcast
11:55 PM 19.4 °F 7.9 °F 10.4 °F 68% 29.73 in 10.0 mi WNW 10.4 mph 16.1 mph N/A   Overcast